Location: Poughquag
(41.6090°N, 73.6820°W)
Time: 07:49:41
(UTC-05:00)

STRAND 1 - Pass Details

Date: 28 November 2023
Orbit: 766 x 778 km, 98.4° (Epoch: 24 February)

Event Time Altitude Azimuth Distance (km) Brightness Sun altitude
Rises 04:55:01 0° 144° (SE) 3,239 ? -22.6°
Reaches altitude 10° 04:57:26 10° 137° (SE) 2,314 ? -22.2°
Maximum altitude 05:02:08 39° 69° (ENE) 1,150 ? -21.3°
Drops below altitude 10° 05:06:52 10° 2° (N) 2,321 ? -20.4°
Sets 05:09:17 0° 355° (N) 3,251 ? -20.0°
